Regional Weather Roundup
Issued by NWS Little Rock, AR

Home | Current Version | Previous Version | Text Only | Print | Product List | Glossary On
Versions: 1 2 3 4 5 6 7 8 9 10 11 12 13 14 15 16 17 18 19 20 21 22 23 24 25 26 27 28 29 30 31 32
000
ASUS44 KLZK 171212
RWRLZK

WEATHER ROUNDUP FOR ARKANSAS
NATIONAL WEATHER SERVICE LITTLE ROCK AR
700 AM CDT THU AUG 17 2017

NOTE: "FAIR" INDICATES FEW OR NO CLOUDS BELOW 12,000 FEET WITH NO
SIGNIFICANT WEATHER AND/OR OBSTRUCTIONS TO VISIBILITY.

ARZ001-003-010-029-171300-
NORTHWEST ARKANSAS

CITY           SKY/WX    TMP DP  RH WIND       PRES   REMARKS
FAYETTEVILLE   CLOUDY    68  68 100 SW5       29.97R
6HR MIN TEMP:  66; 6HR MAX TEMP:  69; 6HR PCP:  0.94;

FORT SMITH     CLOUDY    73  72  96 S7        29.97R
6HR MIN TEMP:  72; 6HR MAX TEMP:  81; 6HR PCP:  0.38;

HARRISON       CLOUDY    68  68 100 CALM      29.96R
6HR MIN TEMP:  66; 6HR MAX TEMP:  70;

BENTONVILLE    CLOUDY    70  66  88 W3        29.97R
6HR MIN TEMP:  66; 6HR MAX TEMP:  70; 6HR PCP:  0.34;

ROGERS         CLOUDY    70  68  94 W5        29.98R
6HR MIN TEMP:  66; 6HR MAX TEMP:  69; 6HR PCP:  0.50;

SILOAM SPGS    CLOUDY    70  66  88 SW7       29.97R
6HR MIN TEMP:  66; 6HR MAX TEMP:  70; 6HR PCP:  0.49;

HIGHFILL       CLOUDY    69  69 100 SW7       29.97R
6HR MIN TEMP:  67; 6HR MAX TEMP:  70; 6HR PCP:  0.31;

SPRINGDALE     CLOUDY    70  70 100 W5        29.98R
$$

ARZ004-005-016-171300-
NORTH CENTRAL ARKANSAS

CITY           SKY/WX    TMP DP  RH WIND       PRES   REMARKS
BATESVILLE     CLOUDY    70  68  94 CALM      29.96S
6HR MIN TEMP:  70; 6HR MAX TEMP:  81; 6HR PCP:  0.35;

FLIPPIN        CLOUDY    70  63  78 CALM      29.93R
6HR MIN TEMP:  68; 6HR MAX TEMP:  72; 6HR PCP:  0.58;

MTN HOME       LGT RAIN  68  68 100 S5        29.95R
6HR MIN TEMP:  67; 6HR MAX TEMP:  69; 6HR PCP:  0.40;

$$

ARZ040-041-171300-
WEST CENTRAL ARKANSAS

CITY           SKY/WX    TMP DP  RH WIND       PRES   REMARKS
MENA           CLOUDY    72  72 100 CALM      30.00R
MOUNT IDA      LGT RAIN  74  72  93 VRB3      29.96R
6HR MIN TEMP:  73; 6HR MAX TEMP:  82; 6HR PCP:  0.85;

$$

ARZ009-017-025-026-028-171300-
NORTHEAST ARKANSAS

CITY           SKY/WX    TMP DP  RH WIND       PRES   REMARKS
CORNING        FAIR      73  73 100 SW5       29.94R
JONESBORO      CLOUDY    76  76 100 S5        29.95R
6HR MIN TEMP:  76; 6HR MAX TEMP:  79; 6HR PCP: TRACE;

NEWPORT        CLOUDY    73  70  90 NW6       29.97R
6HR MIN TEMP:  73; 6HR MAX TEMP:  79;

WALNUT RIDGE   CLOUDY    73  68  83 CALM      29.95R
6HR MIN TEMP:  73; 6HR MAX TEMP:  79; 6HR PCP:  0.01;

BLYTHEVILLE    CLOUDY    76  75  97 S8        29.96S
6HR MIN TEMP:  75; 6HR MAX TEMP:  79;

$$

ARZ022-023-033-042-044-171300-
CENTRAL ARKANSAS

CITY           SKY/WX    TMP DP  RH WIND       PRES   REMARKS
LITTLE ROCK    CLOUDY    78  77  96 SW10      29.96R
6HR MIN TEMP:  75; 6HR MAX TEMP:  78;

N LITTLE ROCK    N/A     78  76  91 W6        29.98R
6HR MIN TEMP:  77; 6HR MAX TEMP:  79;

JACKSONVILLE   CLOUDY    79  78  95 SW12      29.97R
6HR MIN TEMP:  77; 6HR MAX TEMP:  79;

CONWAY           N/A     73  73 100 N8G15     29.97R
SEARCY           N/A    N/A N/A N/A MISG        N/A
HOT SPRINGS    LGT RAIN  76  76 100 CALM      29.97F
6HR MIN TEMP:  74; 6HR MAX TEMP:  81; 6HR PCP:  0.79;

RUSSELLVILLE   LGT RAIN  71  71 100 VRB3      29.96R
6HR MIN TEMP:  70; 6HR MAX TEMP:  80; 6HR PCP:  0.78;

CLINTON        LGT RAIN  70  70 100 E6        29.96R
$$

ARZ036-171300-
EAST ARKANSAS

CITY           SKY/WX    TMP DP  RH WIND       PRES   REMARKS
WEST MEMPHIS   CLOUDY    77  76  96 SW6       29.97R
6HR MIN TEMP:  74; 6HR MAX TEMP:  77;

$$

ARZ050-053-066-070-073-171300-
SOUTHWEST ARKANSAS

CITY           SKY/WX    TMP DP  RH WIND       PRES   REMARKS
ARKADELPHIA    LGT RAIN  80  77  90 S7        29.97R HX  87
6HR MIN TEMP:  77; 6HR MAX TEMP:  80; 6HR PCP: TRACE;

CAMDEN         CLOUDY    81  75  83 SW6       29.99R HX  86
TEXARKANA      HVY RAIN  70  70 100 NW10      30.03R FOG
6HR MIN TEMP:  70; 6HR MAX TEMP:  80; 6HR PCP:  0.31;

EL DORADO      CLOUDY    80  77  90 S7        30.01R HX  87
6HR MIN TEMP:  76; 6HR MAX TEMP:  80;

DE QUEEN       LGT RAIN  71  71 100 S7        29.99R FOG
6HR MIN TEMP:  71; 6HR MAX TEMP:  82;

$$

ARZ056-057-069-171300-
SOUTHEAST ARKANSAS

CITY           SKY/WX    TMP DP  RH WIND       PRES   REMARKS
PINE BLUFF     CLOUDY    78  75  90 S12       29.98R
6HR MIN TEMP:  76; 6HR MAX TEMP:  78;

MONTICELLO     MOCLDY    79  76  90 SW9       30.01R
6HR MIN TEMP:  76; 6HR MAX TEMP:  80;


$$






USA.gov is the U.S. government's official web portal to all federal, state and local government web resources and services.